Location: Newark
(15.4608°S, 41.1635°W)
Time: 23:51:39
(UTC+00:00)

Transit 4A - Pass Details

Date: 09 March 2021
Orbit: 869 x 975 km, 66.8° (Epoch: 16 April)

Event Time Altitude Azimuth Distance (km) Brightness Sun altitude
Rises 08:11:19 0° 170° (S) 3,635 11.2 -9.4°
Reaches altitude 10° 08:15:48 10° 141° (SE) 2,704 11.1 -8.3°
Maximum altitude 08:18:11 12° 118° (ESE) 2,549 11.5 -7.7°
Drops below altitude 10° 08:20:35 10° 96° (E) 2,713 12.2 -7.1°
Sets 08:25:03 0° 67° (ENE) 3,661 12.2 -6.1°
